When you browse on this site, cookies collect data to enhance your experience and personalize the content and advertising you see.
Visit our Privacy Policy to learn more. By continuing to use the site, you agree to this use of cookies and data.
  • In Austria
  • List of Countries
  • For 7 days
  • Water Temperature
  • Satellite Maps
  • Weather Map
  • News
  • Weather Widgets
  • user-avatar
    Login

    Hourly Weather Makadi Bey

    Today, 20 January, Sunday

    Time Temperature Precipitation Wind Pressure Humidity
    00:00 +10°C° 0 mm 0 mps 708 mmHg 31%
    01:00 +10°C° 0 mm 0 mps 708 mmHg 31%
    02:00 +9°C° 0 mm 0 mps 708 mmHg 32%
    03:00 +9°C° 0 mm 0 mps 708 mmHg 31%
    04:00 +9°C° 0 mm 0 mps 708 mmHg 31%
    05:00 +8°C° 0 mm 0 mps 708 mmHg 30%
    06:00 +10°C° 0 mm 0 mps 708 mmHg 26%
    07:00 +11°C° 0 mm 0 mps 708 mmHg 22%
    08:00 +14°C° 0 mm 0 mps 709 mmHg 18%
    09:00 +16°C° 0 mm 0 mps 709 mmHg 16%
    10:00 +17°C° 0 mm 0 mps 709 mmHg 15%
    11:00 +18°C° 0 mm 0 mps 710 mmHg 14%
    12:00 +21°C° 0 mm 1 mps 709 mmHg 13%
    13:00 +22°C° 0 mm 1 mps 709 mmHg 12%
    14:00 +23°C° 0 mm 1 mps 708 mmHg 12%
    15:00 +22°C° 0 mm 1 mps 708 mmHg 14%
    16:00 +21°C° 0 mm 1 mps 708 mmHg 16%
    17:00 +20°C° 0 mm 1 mps 708 mmHg 18%
    18:00 +19°C° 0 mm 1 mps 708 mmHg 21%
    19:00 +15°C° 0 mm 0 mps 708 mmHg 25%
    20:00 +14°C° 0 mm 0 mps 708 mmHg 28%
    21:00 +13°C° 0 mm 0 mps 708 mmHg 30%
    22:00 +13°C° 0 mm 0 mps 708 mmHg 32%
    23:00 +13°C° 0 mm 0 mps 708 mmHg 33%

    Tomorrow, 21 January, Monday

    Time Temperature Precipitation Wind Pressure Humidity
    00:00 +12°C° 0 mm 0 mps 708 mmHg 35%
    01:00 +12°C° 0 mm 0 mps 707 mmHg 37%
    02:00 +13°C° 0 mm 1 mps 707 mmHg 39%
    03:00 +12°C° 0 mm 1 mps 707 mmHg 42%
    04:00 +11°C° 0 mm 0 mps 707 mmHg 44%
    05:00 +10°C° 0 mm 0 mps 707 mmHg 47%
    06:00 +12°C° 0 mm 0 mps 707 mmHg 43%
    07:00 +13°C° 0 mm 0 mps 708 mmHg 39%
    08:00 +15°C° 0 mm 0 mps 708 mmHg 35%
    09:00 +17°C° 0 mm 0 mps 708 mmHg 29%
    10:00 +19°C° 0 mm 0 mps 709 mmHg 23%
    11:00 +21°C° 0 mm 0 mps 709 mmHg 17%
    12:00 +23°C° 0 mm 1 mps 709 mmHg 16%
    13:00 +24°C° 0 mm 1 mps 708 mmHg 14%
    14:00 +25°C° 0 mm 1 mps 708 mmHg 12%
    15:00 +24°C° 0 mm 1 mps 708 mmHg 13%
    16:00 +23°C° 0 mm 1 mps 708 mmHg 15%
    17:00 +22°C° 0 mm 1 mps 707 mmHg 16%
    18:00 +20°C° 0 mm 1 mps 707 mmHg 19%
    19:00 +17°C° 0 mm 0 mps 707 mmHg 22%
    20:00 +16°C° 0 mm 0 mps 707 mmHg 24%
    21:00 +15°C° 0 mm 0 mps 707 mmHg 24%
    22:00 +15°C° 0 mm 0 mps 707 mmHg 23%
    23:00 +14°C° 0 mm 0 mps 707 mmHg 22%

    Day after tomorrow, 22 January, Tuesday

    Time Temperature Precipitation Wind Pressure Humidity
    00:00 +14°C° 0 mm 0 mps 707 mmHg 20%
    01:00 +13°C° 0 mm 0 mps 707 mmHg 17%
    02:00 +14°C° 0 mm 1 mps 707 mmHg 14%
    03:00 +13°C° 0 mm 1 mps 706 mmHg 12%
    04:00 +13°C° 0 mm 1 mps 706 mmHg 10%
    05:00 +13°C° 0 mm 1 mps 706 mmHg 8%
    06:00 +14°C° 0 mm 1 mps 706 mmHg 8%
    07:00 +16°C° 0 mm 1 mps 707 mmHg 7%
    08:00 +18°C° 0 mm 1 mps 708 mmHg 6%
    09:00 +20°C° 0 mm 1 mps 708 mmHg 7%
    10:00 +21°C° 0 mm 2 mps 708 mmHg 8%
    11:00 +24°C° 0 mm 2 mps 709 mmHg 8%
    12:00 +24°C° 0 mm 3 mps 708 mmHg 8%
    13:00 +25°C° 0 mm 3 mps 708 mmHg 8%
    14:00 +25°C° 0 mm 3 mps 707 mmHg 8%
    15:00 +24°C° 0 mm 3 mps 707 mmHg 10%
    16:00 +23°C° 0 mm 2 mps 707 mmHg 12%
    17:00 +21°C° 0 mm 2 mps 707 mmHg 14%
    18:00 +20°C° 0 mm 1 mps 707 mmHg 19%
    19:00 +18°C° 0 mm 1 mps 707 mmHg 24%
    20:00 +15°C° 0 mm 1 mps 707 mmHg 29%
    21:00 +15°C° 0 mm 1 mps 707 mmHg 33%
    22:00 +14°C° 0 mm 1 mps 707 mmHg 37%
    23:00 +14°C° 0 mm 1 mps 707 mmHg 41%

    23 January, Wednesday

    Time Temperature Precipitation Wind Pressure Humidity
    00:00 +13°C° 0 mm 1 mps 706 mmHg 43%
    01:00 +13°C° 0 mm 1 mps 706 mmHg 45%
    02:00 +12°C° 0 mm 1 mps 706 mmHg 48%
    03:00 +12°C° 0 mm 1 mps 705 mmHg 49%
    04:00 +11°C° 0 mm 1 mps 705 mmHg 49%
    05:00 +11°C° 0 mm 1 mps 705 mmHg 50%
    06:00 +12°C° 0 mm 1 mps 706 mmHg 45%
    07:00 +14°C° 0 mm 1 mps 706 mmHg 39%
    08:00 +15°C° 0 mm 1 mps 707 mmHg 34%
    09:00 +18°C° 0 mm 1 mps 707 mmHg 29%
    10:00 +20°C° 0 mm 1 mps 707 mmHg 24%
    11:00 +22°C° 0 mm 1 mps 708 mmHg 19%
    12:00 +23°C° 0 mm 2 mps 707 mmHg 17%
    13:00 +24°C° 0 mm 2 mps 707 mmHg 16%
    14:00 +25°C° 0 mm 2 mps 706 mmHg 14%
    15:00 +24°C° 0 mm 2 mps 706 mmHg 17%
    16:00 +23°C° 0 mm 2 mps 705 mmHg 20%
    17:00 +22°C° 0 mm 1 mps 705 mmHg 22%
    18:00 +20°C° 0 mm 1 mps 705 mmHg 30%
    19:00 +18°C° 0 mm 1 mps 705 mmHg 37%
    20:00 +16°C° 0 mm 1 mps 705 mmHg 45%
    21:00 +15°C° 0 mm 1 mps 705 mmHg 48%
    22:00 +15°C° 0 mm 1 mps 705 mmHg 51%
    23:00 +14°C° 0 mm 1 mps 705 mmHg 54%

    24 January, Thursday

    Time Temperature Precipitation Wind Pressure Humidity
    00:00 +14°C° 0 mm 1 mps 705 mmHg 53%
    01:00 +14°C° 0 mm 1 mps 704 mmHg 52%
    02:00 +13°C° 0 mm 1 mps 704 mmHg 51%
    03:00 +13°C° 0 mm 1 mps 704 mmHg 51%
    04:00 +13°C° 0 mm 1 mps 704 mmHg 50%
    05:00 +13°C° 0 mm 1 mps 704 mmHg 49%
    06:00 +15°C° 0 mm 1 mps 704 mmHg 49%
    07:00 +16°C° 0 mm 2 mps 704 mmHg 49%
    08:00 +17°C° 0 mm 2 mps 705 mmHg 49%
    09:00 +20°C° 0 mm 2 mps 705 mmHg 42%
    10:00 +22°C° 0 mm 3 mps 706 mmHg 35%
    11:00 +25°C° 0 mm 3 mps 706 mmHg 28%
    12:00 +27°C° 0 mm 5 mps 706 mmHg 23%
    13:00 +28°C° 0 mm 6 mps 705 mmHg 19%
    14:00 +31°C° 0 mm 8 mps 705 mmHg 14%
    15:00 +29°C° 0 mm 6 mps 705 mmHg 14%
    16:00 +28°C° 0 mm 5 mps 705 mmHg 15%
    17:00 +27°C° 0 mm 4 mps 705 mmHg 16%
    18:00 +25°C° 0 mm 3 mps 705 mmHg 15%
    19:00 +22°C° 0 mm 3 mps 705 mmHg 14%
    20:00 +20°C° 0 mm 2 mps 705 mmHg 12%
    21:00 +19°C° 0 mm 2 mps 705 mmHg 10%
    22:00 +20°C° 0 mm 1 mps 705 mmHg 8%
    23:00 +19°C° 0 mm 1 mps 705 mmHg 6%

    25 January, Friday

    Time Temperature Precipitation Wind Pressure Humidity
    00:00 +18°C° 0 mm 1 mps 705 mmHg 5%
    01:00 +18°C° 0 mm 1 mps 705 mmHg 4%
    02:00 +16°C° 0 mm 1 mps 705 mmHg 4%
    03:00 +15°C° 0 mm 0 mps 705 mmHg 7%
    04:00 +15°C° 0 mm 0 mps 705 mmHg 9%
    05:00 +15°C° 0 mm 0 mps 704 mmHg 12%
    06:00 +16°C° 0 mm 0 mps 705 mmHg 14%
    07:00 +17°C° 0 mm 0 mps 706 mmHg 15%
    08:00 +18°C° 0 mm 0 mps 706 mmHg 16%
    09:00 +20°C° 0 mm 0 mps 707 mmHg 15%
    10:00 +22°C° 0 mm 0 mps 707 mmHg 15%
    11:00 +24°C° 0 mm 0 mps 707 mmHg 14%
    12:00 +27°C° 0 mm 1 mps 707 mmHg 13%
    13:00 +27°C° 0 mm 2 mps 706 mmHg 12%
    14:00 +28°C° 0 mm 2 mps 706 mmHg 11%
    15:00 +27°C° 0 mm 2 mps 706 mmHg 12%
    16:00 +27°C° 0 mm 2 mps 706 mmHg 13%
    17:00 +26°C° 0 mm 2 mps 706 mmHg 14%
    18:00 +24°C° 0 mm 1 mps 706 mmHg 16%
    19:00 +23°C° 0 mm 1 mps 706 mmHg 18%
    20:00 +22°C° 0 mm 1 mps 706 mmHg 20%
    21:00 +21°C° 0 mm 1 mps 706 mmHg 18%
    22:00 +21°C° 0 mm 1 mps 706 mmHg 16%
    23:00 +21°C° 0 mm 1 mps 706 mmHg 14%
    Show more